Weather History for DeKalb, IL

Change the Weather History Date:

Saturday, March 10, 2012

  Actual Average (KARR) Record (KARR)
Temperature  
Mean Temperature 42 °F 35 °F  
Max Temperature 59 °F 44 °F 62 °F (2010)
Min Temperature 26 °F 25 °F 0 °F (2003)
Degree Days  
Heating Degree Days 22 31  
Month to date heating degree days 326  
Since 1 July heating degree days 5464  
Cooling Degree Days 0 0  
Month to date cooling degree days 0  
Year to date cooling degree days 0  
Moisture  
Dew Point 19 °F    
Average Humidity 46    
Maximum Humidity 69    
Minimum Humidity 21    
Precipitation  
Precipitation 0.00 in 0.08 in 1.06 in (2013)
Month to date precipitation 0.68  
Year to date precipitation 3.77  
Sea Level Pressure  
Sea Level Pressure 30.32 in    
Wind  
Wind Speed 15 mph (South)    
Max Wind Speed 29 mph    
Max Gust Speed 36 mph    
Visibility 10 miles    
Events      
T = Trace of Precipitation, MM = Missing Value Source: NWS Daily Summary

Daily Weather History Graph

Daily Weather History Graph

Search for Another Location

Airport:

Trip Planner

Search our weather history database for the weather conditions in past years. The results will help you decide how hot, cold, wet, or windy it might be!

Date:

Astronomy

Mar. 10, 2012 Rise Set
Actual Time 6:14 AM CST 5:56 PM CST
Civil Twilight 5:46 AM CST 6:24 PM CST
Nautical Twilight 5:14 AM CST 6:56 PM CST
Astronomical Twilight 4:41 AM CST 7:29 PM CST
Moon 9:12 PM CST (3/10) 7:05 AM CST (3/10)
Length of Visible Light 12h 37m
Length of Day
11h 41m
Waning Gibbous, 92% of the Moon is Illuminated
Mar 10
Waning Gibbous
Mar 14
Last Quarter
Mar 22
New
Mar 30
First Quarter
Apr 6
Full

Hourly Weather History & Observations

Time (CST) Temp. Windchill Dew Point Humidity Pressure Visibility Wind Dir Wind Speed Gust Speed Precip Events Conditions
12:15 AM 28.0 °F 20.0 °F 17.4 °F 64% 30.47 in 10.0 mi SE 8.1 mph - N/A   Clear
12:35 AM 27.9 °F 19.1 °F 18.0 °F 66% 30.47 in 10.0 mi SE 9.2 mph - N/A   Clear
12:55 AM 27.9 °F 18.4 °F 17.6 °F 65% 30.46 in 10.0 mi SSE 10.4 mph - N/A   Clear
1:15 AM 28.2 °F 17.7 °F 17.6 °F 64% 30.45 in 10.0 mi SSE 12.7 mph - N/A   Clear
1:35 AM 27.7 °F 18.2 °F 17.6 °F 66% 30.45 in 10.0 mi SE 10.4 mph - N/A   Clear
1:55 AM 27.5 °F 18.6 °F 17.6 °F 66% 30.45 in 10.0 mi SE 9.2 mph - N/A   Clear
2:15 AM 27.3 °F 17.7 °F 18.0 °F 68% 30.44 in 10.0 mi SE 10.4 mph - N/A   Clear
2:35 AM 27.3 °F 17.7 °F 18.1 °F 68% 30.43 in 10.0 mi SE 10.4 mph - N/A   Clear
2:55 AM 27.3 °F 17.7 °F 18.5 °F 69% 30.43 in 10.0 mi SE 10.4 mph - N/A   Clear
3:15 AM 27.5 °F 17.4 °F 18.5 °F 69% 30.42 in 10.0 mi SSE 11.5 mph - N/A   Clear
3:35 AM 27.3 °F 17.1 °F 18.5 °F 69% 30.42 in 10.0 mi SE 11.5 mph - N/A   Clear
3:55 AM 27.5 °F 16.8 °F 18.3 °F 68% 30.41 in 10.0 mi SSE 12.7 mph - N/A   Clear
4:15 AM 27.3 °F 16.1 °F 18.1 °F 68% 30.40 in 10.0 mi SSE 13.8 mph - N/A   Clear
4:35 AM 27.5 °F 16.8 °F 17.6 °F 66% 30.40 in 10.0 mi SSE 12.7 mph - N/A   Clear
4:55 AM 27.5 °F 16.8 °F 17.4 °F 66% 30.40 in 10.0 mi SSE 12.7 mph - N/A   Clear
5:15 AM 27.5 °F 16.8 °F 17.2 °F 65% 30.40 in 10.0 mi SSE 12.7 mph - N/A   Clear
5:35 AM 27.3 °F 16.1 °F 17.1 °F 65% 30.40 in 10.0 mi South 13.8 mph - N/A   Clear
5:55 AM 26.6 °F 15.2 °F 17.6 °F 69% 30.40 in 10.0 mi SSE 13.8 mph - N/A   Clear
6:15 AM 27.1 °F 15.9 °F 16.7 °F 65% 30.40 in 10.0 mi SSE 13.8 mph - N/A   Clear
6:35 AM 27.5 °F 16.3 °F 16.7 °F 64% 30.39 in 10.0 mi SSE 13.8 mph - N/A   Clear
6:55 AM 28.0 °F 16.5 °F 16.7 °F 62% 30.39 in 10.0 mi SSE 15.0 mph - N/A   Clear
7:15 AM 29.3 °F 17.3 °F 17.1 °F 60% 30.39 in 10.0 mi SSE 17.3 mph 23.0 mph N/A   Clear
7:35 AM 30.2 °F 19.3 °F 17.8 °F 60% 30.39 in 10.0 mi South 15.0 mph - N/A   Clear
7:55 AM 31.8 °F 20.2 °F 18.0 °F 57% 30.39 in 10.0 mi South 18.4 mph 24.2 mph N/A   Clear
8:15 AM 32.7 °F 21.4 °F 18.3 °F 55% 30.39 in 10.0 mi South 18.4 mph 25.3 mph N/A   Clear
8:35 AM 34.2 °F 23.3 °F 18.3 °F 52% 30.39 in 10.0 mi South 18.4 mph 23.0 mph N/A   Clear
8:55 AM 36.5 °F 26.3 °F 18.5 °F 48% 30.37 in 10.0 mi South 18.4 mph 24.2 mph N/A   Clear
9:15 AM 38.8 °F 28.0 °F 17.4 °F 42% 30.36 in 10.0 mi South 24.2 mph 29.9 mph N/A   Clear
9:35 AM 40.1 °F 29.5 °F 17.2 °F 40% 30.36 in 10.0 mi South 25.3 mph 28.8 mph N/A   Clear
9:55 AM 41.4 °F 31.9 °F 18.5 °F 40% 30.35 in 10.0 mi South 21.9 mph - N/A   Clear
10:15 AM 42.8 °F 33.5 °F 18.5 °F 38% 30.35 in 10.0 mi South 23.0 mph 28.8 mph N/A   Clear
10:35 AM 44.4 °F 35.7 °F 19.8 °F 37% 30.34 in 10.0 mi South 23.0 mph 28.8 mph N/A   Clear
10:55 AM 46.6 °F - 20.5 °F 36% 30.33 in 10.0 mi South 25.3 mph - N/A   Clear
11:15 AM 50.2 °F - 20.8 °F 32% 30.32 in 10.0 mi South 21.9 mph 26.5 mph N/A   Clear
11:35 AM 50.7 °F - 19.4 °F 29% 30.31 in 10.0 mi SSW 20.7 mph - N/A   Clear
11:55 AM 52.0 °F - 18.3 °F 27% 30.31 in 10.0 mi SSW 20.7 mph 32.2 mph N/A   Clear
12:15 PM 54.1 °F - 18.5 °F 25% 30.30 in 10.0 mi SSW 23.0 mph 26.5 mph N/A   Clear
12:35 PM 55.4 °F - 17.4 °F 23% 30.29 in 10.0 mi SSW 21.9 mph 31.1 mph N/A   Clear
12:55 PM 56.7 °F - 19.6 °F 24% 30.29 in 10.0 mi SW 25.3 mph - N/A   Clear
1:15 PM 56.5 °F - 16.5 °F 21% 30.27 in 10.0 mi SW 23.0 mph 31.1 mph N/A   Clear
1:35 PM 57.9 °F - 18.5 °F 22% 30.26 in 10.0 mi SSW 26.5 mph 32.2 mph N/A   Clear
1:55 PM 58.1 °F - 19.8 °F 23% 30.24 in 10.0 mi SSW 25.3 mph 32.2 mph N/A   Clear
2:15 PM 58.3 °F - 18.3 °F 21% 30.24 in 10.0 mi SSW 28.8 mph 35.7 mph N/A   Clear
2:35 PM 59.0 °F - 18.7 °F 21% 30.23 in 10.0 mi SSW 25.3 mph 31.1 mph N/A   Clear
2:55 PM 58.5 °F - 18.1 °F 21% 30.22 in 10.0 mi SSW 20.7 mph 29.9 mph N/A   Clear
3:35 PM 59.0 °F - 19.2 °F 21% 30.20 in 10.0 mi SSW 25.3 mph 32.2 mph N/A   Clear
3:55 PM 58.6 °F - 19.8 °F 22% 30.20 in 10.0 mi SSW 18.4 mph - N/A   Clear
4:15 PM 58.5 °F - 19.6 °F 22% 30.19 in 10.0 mi SSW 20.7 mph 28.8 mph N/A   Clear
4:35 PM 58.1 °F - 18.9 °F 22% 30.20 in 10.0 mi SSW 23.0 mph 27.6 mph N/A   Clear
4:55 PM 58.1 °F - 20.7 °F 23% 30.19 in 10.0 mi SSW 20.7 mph 25.3 mph N/A   Clear
5:15 PM 56.7 °F - 21.7 °F 26% 30.19 in 10.0 mi SSW 16.1 mph 23.0 mph N/A   Clear
5:35 PM 54.7 °F - 23.7 °F 30% 30.18 in 10.0 mi SSW 16.1 mph - N/A   Clear
5:55 PM 53.1 °F - 23.5 °F 32% 30.18 in 10.0 mi SSW 17.3 mph - N/A   Clear
6:15 PM 51.6 °F - 24.1 °F 34% 30.18 in 10.0 mi SSW 15.0 mph - N/A   Clear
6:35 PM 50.0 °F - 24.4 °F 37% 30.19 in 10.0 mi SSW 12.7 mph - N/A   Clear
6:55 PM 48.6 °F - 24.8 °F 39% 30.19 in 10.0 mi SSW 12.7 mph - N/A   Clear
7:15 PM 45.7 °F 39.8 °F 26.4 °F 47% 30.19 in 10.0 mi SSW 12.7 mph - N/A   Clear
7:35 PM 46.2 °F 40.5 °F 26.2 °F 46% 30.19 in 10.0 mi SSW 12.7 mph - N/A   Clear
7:55 PM 45.1 °F 39.5 °F 26.6 °F 48% 30.20 in 10.0 mi South 11.5 mph - N/A   Clear
8:15 PM 44.8 °F 39.0 °F 26.6 °F 49% 30.20 in 10.0 mi South 11.5 mph - N/A   Clear
8:35 PM 43.9 °F 37.9 °F 26.4 °F 50% 30.21 in 10.0 mi South 11.5 mph - N/A   Clear
8:55 PM 43.3 °F 38.1 °F 26.4 °F 51% 30.21 in 10.0 mi South 9.2 mph - N/A   Clear
9:15 PM 42.8 °F 36.6 °F 26.8 °F 53% 30.21 in 10.0 mi South 11.5 mph - N/A   Clear
9:35 PM 43.2 °F 36.2 °F 27.1 °F 53% 30.21 in 10.0 mi South 13.8 mph - N/A   Clear
9:55 PM 42.4 °F 35.3 °F 27.3 °F 55% 30.22 in 10.0 mi South 13.8 mph - N/A   Clear
10:15 PM 41.0 °F 33.5 °F 27.3 °F 58% 30.22 in 10.0 mi South 13.8 mph - N/A   Clear
10:35 PM 40.1 °F 33.2 °F 27.5 °F 61% 30.22 in 10.0 mi South 11.5 mph - N/A   Clear
10:55 PM 39.9 °F 32.5 °F 28.0 °F 63% 30.22 in 10.0 mi South 12.7 mph - N/A   Clear
11:15 PM 39.2 °F 32.0 °F 28.4 °F 65% 30.22 in 10.0 mi South 11.5 mph - N/A   Clear
11:35 PM 40.5 °F 33.2 °F 28.4 °F 62% 30.21 in 10.0 mi South 12.7 mph - N/A   Clear
11:55 PM 39.2 °F 32.5 °F 27.5 °F 63% 30.21 in 10.0 mi South 10.4 mph - N/A   Clear